Terminal Aerodrome Forecast
Issued by NWS

Home | Current Version | Previous Version | Text Only | Print | Product List | Glossary On
Versions: 1 2 3 4 5 6 7 8 9 10 11 12 13 14 15 16 17
963
FTUS41 KBGM 252017 AAA
TAFRME
TAF AMD
KRME 252017Z 2520/2618 27012G22KT P6SM -SHRA BKN025 OVC035
      TEMPO 2520/2522 5SM SHRA BR OVC015
     FM252200 28010G18KT P6SM -SHRA SCT025 OVC035
     FM260100 28012G22KT P6SM -SHSN BKN025 OVC035
     FM261000 28012G22KT 3SM -SHSN OVC022=

USA.gov is the U.S. government's official web portal to all federal, state and local government web resources and services.